Regional Weather Roundup
Issued by NWS Green Bay, WI

Home | Current Version | Previous Version | Text Only | Print | Product List | Glossary On
Versions: 1 2 3 4 5 6 7 8 9 10 11 12 13 14 15 16 17 18 19 20 21 22 23 24 25 26 27 28 29 30 31 32 33 34 35 36 37 38 39 40 41 42 43 44 45 46 47 48 49 50
000
ASUS43 KGRB 232201
RWRGRB

NORTH-CENTRAL AND NORTHEAST WISCONSIN REGIONAL WEATHER ROUNDUP
NATIONAL WEATHER SERVICE GREEN BAY WI
500 PM CDT SUN JUL 23 2017

WIZ005-009-010>012-018-019-232300-
NORTH CENTRAL WISCONSIN

CITY           SKY/WX    TMP DP  RH WIND       PRES   REMARKS
IRONWOOD       CLOUDY    60  58  92 N8        29.99S
MANITOWISH WTR NOT AVBL
ARBOR VITAE    NOT AVBL
EAGLE RIVER    NOT AVBL
LAND O LAKES   CLOUDY    62  56  82 N9        29.99R
RHINELANDER    CLOUDY    66  59  78 N9        29.95R
PHILLIPS       CLOUDY    64  59  84 N10       29.96R
ANTIGO         PTSUNNY   70  59  69 N18G26    29.90R
TOMAHAWK       NOT AVBL
MERRILL        PTSUNNY   70  61  73 N18       29.91R
$$

WIZ013-073-232300-
NORTHEAST WISCONSIN

CITY           SKY/WX    TMP DP  RH WIND       PRES   REMARKS
IRON MOUNTAIN  CLOUDY    64  54  69 N17       29.91R
MARINETTE      FAIR      72  59  63 N17G25    29.84R
$$

WIZ017-030-035>037-045-232300-
CENTRAL WISCONSIN

CITY           SKY/WX    TMP DP  RH WIND       PRES   REMARKS
MEDFORD        NOT AVBL
WAUSAU         FAIR      76  58  53 N12G18    29.86R
MOSINEE        MOSUNNY   73  59  60 N14       29.88R
MARSHFIELD     FAIR      76  58  53 N14G20    29.88R
WISC RAPIDS    FAIR      79  58  48 NW16      29.86S
STEVENS POINT  NOT AVBL
WAUPACA        NOT AVBL
SHAWANO        PTSUNNY   79  61  54 N16       29.82S
CLINTONVILLE   FAIR      79  59  50 N13       29.82R
WAUTOMA        PTSUNNY   78  61  55 N9        29.83R
$$

WIZ038-039-048-051-232300-
FOX VALLEY

CITY           SKY/WX    TMP DP  RH WIND       PRES   REMARKS
NWS GREEN BAY  PTSUNNY   79  66  64 N5        29.81S
APPLETON       PTSUNNY   77  57  50 NW8       29.80S
OSHKOSH        FAIR      79  66  64 NE7       29.80S
FOND DU LAC    PTSUNNY   78  60  53 NE16      29.81R
$$

WIZ022-050-052-232300-
EAST CENTRAL WISCONSIN

CITY           SKY/WX    TMP DP  RH WIND       PRES   REMARKS
EPHRAIM        MOCLDY    67  60  78 N15G25    29.84R
WASHINGTON ISL CLOUDY    64  60  88 N15G21    29.84R
STURGEON BAY     N/A     70  62  76 N18G25    29.83R
MANITOWOC      NOT AVBL
SHEBOYGAN      FAIR      77  64  64 NE7       29.80R
$$

LMZ563-521-522-541>543-232300-
LAKESHORE

STATION/POSITION TIME  TEMP    WIND        PRES    VSBY  WAVE
                       AIR SEA DIR/SP/G                  HT/PER
                 (UTC) (F)     (DEG/KT/KT) (MB)    (MI)  (FT/S)
SHEBOYGAN LKSHOR 2100   69      70/  9/  9 1008.4R
KEWAUNEE LKSHORE 2130   69      60/  3/  8 1009.1R
NORTHPORT PIER   2140   66     340/ 19/ 23 1010.2R
N MID LAKE BUOY  2050   67 67  320/ 12/ 14 1009.5R         2/ 3
S GREEN BAY BUOY 2130   71 74   70/ 21/ 27 1009.4R
SISTER BAY LKSHO 2117   72     340/ 19/ 24   N/A
CHAMBERS ISLAND  2140   70     340/ 16/ 21 1009.8R
MENOMINEE LKSHOR 2130   71     340/ 21/ 27 1009.8R
$$




USA.gov is the U.S. government's official web portal to all federal, state and local government web resources and services.